Location: Castelbiague
(43.0361°N, 0.9246°E)
Time: 14:57:43
(UTC+00:00)

SL-24 R/B - Pass Details

Date: 17 June 2021
Orbit: 716 x 1117 km, 91.9° (Epoch: 05 August)

Event Time Altitude Azimuth Distance (km) Brightness Sun altitude
Rises 21:52:28 0° 7° (N) 3,168 8.6 -17.6°
Reaches altitude 10° 21:54:48 10° 10° (N) 2,222 7.6 -17.8°
Maximum altitude 21:59:38 67° 93° (E) 779 4.4 -18.2°
Enters shadow 22:01:35 35° 165° (SSE) 1,150 4.9 -18.4°
